SL-16 DEB

Satellite information

Favourite Embed

Satellite Type and Status

DEBRISIN ORBIT

Key statistics

Satellite SL-16 DEB at a glance.

Uptime

11951

Days in orbit

Revolutions

≈ 13.9

Per day

Orbit

LEO

Low Earth Orbit

Inclination

71.0

Latest

Satellite identification and parameters

Extended collection of information and parameters for SL-16 DEB.

Object identification

Identified? True

Debris? True

Object name: SL-16 DEB

International designator: 1993-016CD

Object number (NORAD): 39903

Object ID (CCSDS): 39903

Country: COMMONWEALTH OF INDEPENDENT STATES (CIS)

Current information (Y/N): Y

RCS size: SMALL

Orbital parameters

Period: 103.775 minutes

Inclination: 70.99 deg

SMA: 7315.132 km

Apoapsis: 1034.069 km

Periapsis: 839.925 km

RAAN: 157.7814 deg

Eccentricy: 0.01327004

Argument of periapsis: 112.1711 deg

Mean anomaly: 60.9234 deg

Mean motion: 13.87616673 rev/day

Mean motion (dot): 0.0000045 rev/day2

B* drag term: 0.00038908362 1/REarth

Two-line elements (TLE)

Creation date: Dec. 6, 2025, 12:48 p.m.

Reference frame: TEME

Reference center: EARTH

Epoch: Dec. 6, 2025, 5:58 a.m. UTC

TLE line 0: 0 SL-16 DEB

TLE line 1: 1 39903U 93016CD 25340.24914806 .00000450 00000-0 38908-3 0 9991

TLE line 2: 2 39903 70.9900 157.7814 0132700 112.1711 60.9234 13.87616673583649

Live tracking on map

Real-time ground track for satellite SL-16 DEB.

In-orbit conjunctions

A list of the most updated potential collisions computed for object SL-16 DEB.

Target Orbit TCA Probability of collision Miss distance Type
COSMOS 1295 LEO 2025-04-09 06:40:57 0.0006810708 133.0 (m) PAYLOAD
COSMOS 2341 LEO 2025-03-05 03:49:23 0.0004573176 246.0 (m) PAYLOAD

Associated space launch

Second generation ELING satellite

SL-16 DEB was lifted into orbit during the mission ‘Zenit-2 | Tselina-2 13’, on board a Zenit-2 space rocket.

The launch took place on March 26, 1993, 2:21 a.m. from 45/1.

For more information about the launch, click the button.

Launch to space Zenit-2 | Tselina-2 13
Zenit-2 | Tselina-2 13

Agency: N/A

Status: Launch Successful

Launch date: March 26, 1993, 2:21 a.m. UTC

Rocket: Zenit-2

Launch pad: 45/1

Location: Baikonur Cosmodrome, Republic of Kazakhstan

...

Latest news about this satellite

There are no fresh news available about this satellite. Check back as we update our databases every day.


Newsletter sign-up

Weekly statistics, charts and insights to help you stay on top of the space industry.